Weather History for Resolute, NU

Change the Weather History Date:

Wednesday, May 15, 2013

  Actual Average Record
Temperature  
Mean Temperature 5 °F -  
Max Temperature 10 °F 15 °F 32 °F (2008)
Min Temperature 0 °F 6 °F -4 °F (2000)
Degree Days  
Heating Degree Days 60    
Moisture  
Dew Point -4 °F    
Average Humidity 63    
Maximum Humidity 73    
Minimum Humidity 39    
Precipitation  
Precipitation 0.00 in - - ()
Sea Level Pressure  
Sea Level Pressure 30.30 in    
Wind  
Wind Speed 7 mph ()    
Max Wind Speed 22 mph    
Max Gust Speed -    
Visibility 15.0 miles    
Events      
Averages and records for this station are not official NWS values.
T = Trace of Precipitation, MM = Missing Value Source: Averaged Metar Reports

Daily Weather History Graph

Daily Weather History Graph

Search for Another Location

Airport:

Trip Planner

Search our weather history database for the weather conditions in past years. The results will help you decide how hot, cold, wet, or windy it might be!

Date:

Astronomy

Dec. 31, 1969 Rise Set
Actual Time Sun does not rise Sun does not rise
Civil Twilight Sun does not rise Sun does not rise
Nautical Twilight Sun does not rise Sun does not rise
Astronomical Twilight Sun does not rise Sun does not rise
Moon No Moon Rise No Moon Set
Length of Visible Light 24h 00m
Length of Day
24h 00m
Waxing Crescent, 27% of the Moon is Illuminated
May 15
Waxing Crescent
May 17
First Quarter
May 24
Full
May 31
Last Quarter
Jun 8
New

Hourly Weather History & Observations

Time (CDT) Temp. Windchill Dew Point Humidity Pressure Visibility Wind Dir Wind Speed Gust Speed Precip Events Conditions
12:00 AM 3.2 °F - -5.8 °F 66% 30.24 in 15.0 mi Calm Calm - N/A   Clear
1:00 AM 2 °F - -6 °F 57% 30.25 in 15 mi Calm Calm - -  
1:00 AM 1.4 °F - -5.8 °F 72% 30.25 in 15.0 mi Calm Calm - N/A   Clear
2:00 AM 1.4 °F -9.9 °F -7.6 °F 66% 30.25 in 15.0 mi SE 5.8 mph - N/A   Partly Cloudy
3:00 AM 3.2 °F -7.8 °F -7.6 °F 61% 30.26 in 15.0 mi SE 5.8 mph - N/A   Partly Cloudy
4:00 AM 1.4 °F -8.3 °F -7.6 °F 66% 30.28 in 15.0 mi SE 4.6 mph - N/A   Partly Cloudy
5:00 AM 1.4 °F -9.9 °F -9.4 °F 61% 30.28 in 15.0 mi ESE 5.8 mph - N/A   Partly Cloudy
6:00 AM 1.4 °F -11.3 °F -11.2 °F 56% 30.29 in 15.0 mi SE 6.9 mph - N/A   Mostly Cloudy
7:00 AM 4 °F - -9 °F 39% 30.30 in 15 mi SE 6.9 mph - -   Clear
7:00 AM 3.2 °F -9.1 °F -9.4 °F 56% 30.30 in 15.0 mi SE 6.9 mph - N/A   Mostly Cloudy
8:00 AM 5.0 °F -10.0 °F -7.6 °F 56% 30.30 in 15.0 mi SE 10.4 mph - N/A   Scattered Clouds
9:00 AM 5.0 °F -10.8 °F -5.8 °F 61% 30.30 in 15.0 mi SSE 11.5 mph - N/A   Mostly Cloudy
10:00 AM 5.0 °F -12.3 °F -5.8 °F 61% 30.30 in 15.0 mi SSE 13.8 mph - N/A   Mostly Cloudy
11:00 AM 5.0 °F -13.0 °F -4.0 °F 66% 30.30 in 15.0 mi SSE 15.0 mph - N/A   Mostly Cloudy
12:00 PM 5.0 °F -12.3 °F -2.2 °F 72% 30.31 in 15.0 mi SSE 13.8 mph - N/A   Mostly Cloudy
1:00 PM 8 °F - -2 °F 49% 30.31 in 15 mi SSE 12.7 mph - -   Mostly Cloudy
1:00 PM 6.8 °F -9.3 °F -2.2 °F 67% 30.31 in 15.0 mi SSE 12.7 mph - N/A   Mostly Cloudy
2:00 PM 8.6 °F -7.0 °F -2.2 °F 62% 30.32 in 15.0 mi SSE 12.7 mph - N/A   Overcast
3:00 PM 8.6 °F -9.5 °F -0.4 °F 67% 30.32 in 15.0 mi SSE 17.3 mph - N/A   Overcast
5:00 PM 10.4 °F -7.2 °F 1.4 °F 67% 30.33 in 15.0 mi SE 17.3 mph - N/A   Overcast
6:00 PM 10.4 °F -7.2 °F 3.2 °F 73% 30.33 in 15.0 mi SE 17.3 mph - N/A   Overcast
7:00 PM 10 °F - 0 °F 52% 30.32 in 15 mi SE 17.3 mph - -   Overcast
7:00 PM 10.4 °F -7.2 °F 1.4 °F 67% 30.32 in 15.0 mi SE 17.3 mph - N/A   Overcast
8:00 PM 8.6 °F -8.3 °F 1.4 °F 73% 30.32 in 15.0 mi SE 15.0 mph - N/A   Overcast
9:00 PM 10.4 °F -9.1 °F -0.4 °F 62% 30.31 in 15.0 mi SE 21.9 mph - N/A   Overcast
10:00 PM 10.4 °F -7.7 °F 1.4 °F 67% 30.31 in 15.0 mi SE 18.4 mph - N/A   Overcast
11:00 PM 10.4 °F -7.7 °F 3.2 °F 73% 30.30 in 15.0 mi SSE 18.4 mph - N/A   Overcast